Mandan, ND

2:08 PM CDT on April 26, 2017 (GMT -0500)
Mandan

Weather History for KY19 - January, 2013

Change the Weather History Date:

Sunday, January 6, 2013

  Actual Average (KBIS) Record (KBIS)
Temperature  
Mean Temperature 18 °F -  
Max Temperature 32 °F 16 °F 50 °F (1961)
Min Temperature 6 °F -1 °F -37 °F (1887)
Degree Days  
Heating Degree Days 47    
Moisture  
Dew Point 14 °F    
Average Humidity 90    
Maximum Humidity 100    
Minimum Humidity 69    
Precipitation  
Precipitation 0.00 in - - ()
Sea Level Pressure  
Sea Level Pressure 29.96 in    
Wind  
Wind Speed 11 mph (SSW)    
Max Wind Speed 21 mph    
Max Gust Speed -    
Visibility 9 miles    
Events Fog , Snow    
Averages and records for this station are not official NWS values.
T = Trace of Precipitation, MM = Missing Value Source: NWS Daily Summary

Daily Weather History Graph

Daily Weather History Graph

Search for Another Location

Airport or City:

Trip Planner

Search our weather history database for the weather conditions in past years. The results will help you decide how hot, cold, wet, or windy it might be!

Date:

Astronomy

Jan. 06, 2013 Rise Set
Actual Time 8:27 AM CST 5:11 PM CST
Civil Twilight 7:53 AM CST 5:46 PM CST
Nautical Twilight 7:14 AM CST 6:24 PM CST
Astronomical Twilight 6:38 AM CST 7:01 PM CST
Moon 2:36 AM CST (1/6) 12:47 PM CST (1/6)
Length of Visible Light 9h 53m
Length of Day
8h 43m
Waning Crescent, 33% of the Moon is Illuminated
Jan 6
Waning Crescent
Jan 11
New
Jan 18
First Quarter
Jan 26
Full
Feb 3
Last Quarter

Hourly Weather History & Observations

Time (CST) Temp. Windchill Dew Point Humidity Pressure Visibility Wind Dir Wind Speed Gust Speed Precip Events Conditions
12:15 AM 15.8 °F 2.1 °F 14.0 °F 93% 30.12 in 10.0 mi WNW 12.7 mph - N/A   Clear
12:35 AM 15.8 °F 0.9 °F 14.0 °F 93% 30.11 in 10.0 mi West 15.0 mph - N/A   Clear
12:55 AM 15.8 °F 0.9 °F 14.0 °F 93% 30.12 in 10.0 mi West 15.0 mph - N/A   Clear
1:15 AM 15.8 °F 0.9 °F 14.0 °F 93% 30.11 in 10.0 mi WNW 15.0 mph - N/A   Clear
1:35 AM 15.8 °F 1.4 °F 14.0 °F 93% 30.11 in 10.0 mi WNW 13.8 mph - N/A   Clear
1:55 AM 15.8 °F 0.9 °F 12.2 °F 86% 30.11 in 10.0 mi West 15.0 mph - N/A   Clear
2:15 AM 14.0 °F 2.9 °F 10.4 °F 86% 30.12 in 10.0 mi WNW 8.1 mph - N/A   Clear
2:35 AM 14.0 °F 2.0 °F 12.2 °F 93% 30.13 in 10.0 mi WNW 9.2 mph - N/A   Clear
2:55 AM 14.0 °F -0.2 °F 12.2 °F 93% 30.13 in 10.0 mi WNW 12.7 mph - N/A   Clear
3:15 AM 15.8 °F 3.4 °F 14.0 °F 93% 30.13 in 10.0 mi NW 10.4 mph - N/A   Clear
3:35 AM 15.8 °F 3.4 °F 14.0 °F 93% 30.14 in 10.0 mi NW 10.4 mph - N/A   Clear
3:55 AM 14.0 °F 1.2 °F 10.4 °F 86% 30.13 in 10.0 mi NW 10.4 mph - N/A   Clear
4:15 AM 10.4 °F -3.3 °F 8.6 °F 92% 30.13 in 10.0 mi WNW 10.4 mph - N/A   Clear
4:35 AM 8.6 °F -4.7 °F 6.8 °F 92% 30.13 in 10.0 mi West 9.2 mph - N/A   Clear
4:55 AM 8.6 °F -4.7 °F 8.6 °F 100% 30.12 in 10.0 mi WNW 9.2 mph - N/A   Clear
5:15 AM 12.2 °F 0.7 °F 10.4 °F 92% 30.11 in 10.0 mi NW 8.1 mph - N/A   Clear
5:35 AM 10.4 °F 0.8 °F 8.6 °F 92% 30.11 in 10.0 mi NNW 5.8 mph - N/A   Clear
5:55 AM 14.0 °F - 14.0 °F 100% 30.10 in 10.0 mi Calm Calm - N/A   Clear
6:15 AM 10.4 °F 2.2 °F 8.6 °F 92% 30.10 in 10.0 mi SE 4.6 mph - N/A   Clear
6:35 AM 10.4 °F 2.2 °F 10.4 °F 100% 30.09 in 10.0 mi East 4.6 mph - N/A   Clear
6:55 AM 10.4 °F 0.8 °F 10.4 °F 100% 30.09 in 10.0 mi East 5.8 mph - N/A   Clear
7:15 AM 10.4 °F -0.4 °F 10.4 °F 100% 30.09 in 10.0 mi ESE 6.9 mph - N/A   Clear
7:35 AM 10.4 °F 0.8 °F 10.4 °F 100% 30.09 in 10.0 mi ESE 5.8 mph - N/A   Clear
7:55 AM 8.6 °F -2.6 °F 8.6 °F 100% 30.08 in 10.0 mi ESE 6.9 mph - N/A   Clear
8:15 AM 6.8 °F -6.9 °F 6.8 °F 100% 30.07 in 3.0 mi ESE 9.2 mph - N/A   Clear
8:35 AM 6.8 °F -5.9 °F 6.8 °F 100% 30.07 in 5.0 mi ESE 8.1 mph - N/A   Clear
8:55 AM 6.8 °F -5.9 °F 6.8 °F 100% 30.06 in 7.0 mi ESE 8.1 mph - N/A   Clear
9:15 AM 6.8 °F -4.8 °F 6.8 °F 100% 30.06 in 6.0 mi East 6.9 mph - N/A   Clear
9:35 AM 6.8 °F -2.0 °F 5.0 °F 92% 30.07 in 5.0 mi SE 4.6 mph - N/A   Clear
9:55 AM 6.8 °F -3.5 °F 5.0 °F 92% 30.06 in 0.2 mi SE 5.8 mph - N/A Fog Light Freezing Fog
10:15 AM 6.8 °F -6.9 °F 6.8 °F 100% 30.05 in 6.0 mi SSE 9.2 mph - N/A   Clear
10:35 AM 8.6 °F -2.6 °F 6.8 °F 92% 30.04 in 8.0 mi SE 6.9 mph - N/A Snow Light Snow
10:55 AM 8.6 °F -1.3 °F 6.8 °F 92% 30.03 in 9.0 mi SSE 5.8 mph - N/A   Clear
11:15 AM 8.6 °F 0.1 °F 6.8 °F 92% 30.03 in 10.0 mi SSE 4.6 mph - N/A   Clear
11:35 AM 8.6 °F -1.3 °F 8.6 °F 100% 30.02 in 10.0 mi South 5.8 mph - N/A   Clear
11:55 AM 12.2 °F -1.8 °F 12.2 °F 100% 30.01 in 10.0 mi South 11.5 mph - N/A   Clear
12:15 PM 15.8 °F 4.2 °F 15.8 °F 100% 29.99 in 10.0 mi SSE 9.2 mph - N/A Snow Light Snow
12:35 PM 15.8 °F 7.2 °F 14.0 °F 93% 29.97 in 10.0 mi SSE 5.8 mph - N/A   Clear
12:55 PM 17.6 °F 10.7 °F 15.8 °F 93% 29.95 in 10.0 mi ESE 4.6 mph - N/A   Clear
1:15 PM 17.6 °F 7.3 °F 15.8 °F 93% 29.93 in 10.0 mi SE 8.1 mph - N/A   Clear
1:35 PM 21.2 °F 8.3 °F 17.6 °F 86% 29.91 in 10.0 mi SSE 13.8 mph - N/A   Clear
1:55 PM 23.0 °F 12.4 °F 17.6 °F 80% 29.89 in 10.0 mi SE 10.4 mph - N/A   Clear
2:15 PM 23.0 °F 13.9 °F 17.6 °F 80% 29.87 in 10.0 mi ESE 8.1 mph - N/A   Clear
2:35 PM 19.4 °F 10.4 °F 15.8 °F 86% 29.86 in 10.0 mi SE 6.9 mph - N/A   Clear
2:55 PM 21.2 °F 9.5 °F 17.6 °F 86% 29.85 in 10.0 mi SE 11.5 mph - N/A   Clear
3:15 PM 21.2 °F 10.1 °F 17.6 °F 86% 29.84 in 10.0 mi SSE 10.4 mph - N/A   Clear
3:35 PM 23.0 °F 12.4 °F 17.6 °F 80% 29.83 in 10.0 mi SSE 10.4 mph - N/A   Clear
3:55 PM 21.2 °F 10.1 °F 17.6 °F 86% 29.82 in 10.0 mi South 10.4 mph - N/A   Clear
4:15 PM 23.0 °F 9.6 °F 19.4 °F 86% 29.81 in 10.0 mi South 16.1 mph - N/A   Clear
4:35 PM 23.0 °F 11.7 °F 19.4 °F 86% 29.82 in 10.0 mi South 11.5 mph - N/A   Clear
4:55 PM 23.0 °F 9.6 °F 19.4 °F 86% 29.79 in 10.0 mi South 16.1 mph - N/A   Clear
5:15 PM 23.0 °F 12.4 °F 19.4 °F 86% 29.81 in 10.0 mi South 10.4 mph - N/A   Clear
5:35 PM 21.2 °F 9.5 °F 19.4 °F 93% 29.78 in 10.0 mi South 11.5 mph - N/A   Clear
5:55 PM 21.2 °F 10.9 °F 19.4 °F 93% 29.78 in 10.0 mi South 9.2 mph - N/A   Clear
6:15 PM 21.2 °F 9.5 °F 19.4 °F 93% 29.76 in 10.0 mi South 11.5 mph - N/A   Clear
6:35 PM 23.0 °F 11.7 °F 19.4 °F 86% 29.76 in 10.0 mi SSW 11.5 mph - N/A   Clear
6:55 PM 23.0 °F 12.4 °F 19.4 °F 86% 29.76 in 10.0 mi SW 10.4 mph - N/A   Clear
7:15 PM 23.0 °F 13.9 °F 19.4 °F 86% 29.75 in 10.0 mi SW 8.1 mph - N/A   Clear
7:35 PM 23.0 °F 13.9 °F 19.4 °F 86% 29.75 in 10.0 mi SW 8.1 mph - N/A   Clear
7:55 PM 23.0 °F 13.9 °F 17.6 °F 80% 29.75 in 10.0 mi SW 8.1 mph - N/A   Clear
8:15 PM 23.0 °F 13.1 °F 17.6 °F 80% 29.75 in 10.0 mi SW 9.2 mph - N/A   Clear
8:35 PM 21.2 °F 11.7 °F 17.6 °F 86% 29.75 in 10.0 mi West 8.1 mph - N/A   Clear
9:15 PM 24.8 °F 12.4 °F 19.4 °F 80% 29.74 in 10.0 mi West 15.0 mph - N/A   Clear
9:55 PM 24.8 °F 11.1 °F 19.4 °F 80% 29.75 in 10.0 mi West 18.4 mph - N/A   Partly Cloudy
10:15 PM 26.6 °F 13.8 °F 19.4 °F 74% 29.75 in 10.0 mi WNW 17.3 mph - N/A   Scattered Clouds
10:35 PM 26.6 °F 14.3 °F 19.4 °F 74% 29.75 in 10.0 mi WNW 16.1 mph - N/A   Partly Cloudy
10:55 PM 28.4 °F 15.4 °F 23.0 °F 80% 29.75 in 10.0 mi West 19.6 mph - N/A   Mostly Cloudy
11:35 PM 30.2 °F 17.8 °F 23.0 °F 75% 29.75 in 10.0 mi West 19.6 mph - N/A   Partly Cloudy
11:55 PM 32.0 °F 19.8 °F 23.0 °F 69% 29.76 in 10.0 mi West 20.7 mph - N/A   Mostly Cloudy